GW3710 Weather Reports


time (UTC)temp
F
wind
direction
speed
knots
gust
knots
rain 1hr
in
rain 24hr
in
rain mn
in
humidity
%
barometer
mb
20260906163821 75 99 3.5 6.1 0.00 0.00 0.00 76 1021.1
20260906163317 75 92 6.1 7.8 0.00 0.00 0.00 77 1021.2
20260906162815 74 11 3.5 3.5 0.00 0.00 0.00 79 1021.3
20260906162314 74 108 4.3 5.2 0.00 0.00 0.00 79 1021.1
20260906161809 73 44 1.7 2.6 0.00 0.00 0.00 81 1021.2
20260906161308 72 153 1.7 3.5 0.00 0.00 0.00 81 1021.1
20260906160807 73 110 3.5 7.8 0.00 0.00 0.00 83 1021.2
20260906160302 72 114 0.9 5.2 0.00 0.00 0.00 85 1021.5
20260906155759 72 120 1.7 5.2 0.00 0.00 0.00 85 1021.3
20260906155254 72 98 5.2 7.0 0.00 0.00 0.00 83 1021.5
20260906154750 71 50 1.7 3.5 0.00 0.00 0.00 85 1021.0
20260906154244 72 111 3.5 3.5 0.00 0.00 0.00 85 1021.0
20260906153743 72 74 2.6 2.6 0.00 0.00 0.00 85 1021.2
20260906153237 71 177 1.7 5.2 0.00 0.00 0.00 88 1021.2
20260906152733 71 72 2.6 5.2 0.00 0.00 0.00 87 1021.2
20260906152227 70 112 3.5 5.2 0.00 0.00 0.00 87 1021.0
20260906151727 70 72 3.5 7.0 0.00 0.00 0.00 88 1020.9
20260906151222 70 85 4.3 7.8 0.00 0.00 0.00 87 1020.8
20260906150718 70 159 0.9 3.5 0.00 0.00 0.00 88 1020.9
20260906150213 70 123 2.6 7.8 0.00 0.00 0.00 87 1021.1
20260906145712 70 41 4.3 8.7 0.00 0.00 0.00 88 1020.8
20260906145211 70 33 1.7 2.6 0.00 0.00 0.00 89 1021.0
20260906144706 69 56 2.6 3.5 0.00 0.00 0.00 89 1020.9
20260906144201 69 65 0.0 3.5 0.00 0.00 0.00 91 1020.8
20260906143700 69 65 1.7 6.1 0.00 0.00 0.00 90 1020.8
20260906143158 69 87 0.9 5.2 0.00 0.00 0.00 91 1020.8
20260906142652 68 125 1.7 6.1 0.00 0.00 0.00 91 1020.6
20260906142147 69 72 2.6 6.1 0.00 0.00 0.00 91 1020.6
20260906141646 68 92 1.7 6.1 0.00 0.00 0.00 92 1020.6
20260906141141 68 92 4.3 5.2 0.00 0.00 0.00 92 1020.4
20260906140640 68 106 2.6 6.1 0.00 0.00 0.00 93 1020.7
20260906140135 68 103 0.9 2.6 0.00 0.00 0.00 95 1020.5
20260906135632 66 102 3.5 5.2 0.00 0.00 0.00 98 1020.6
20260906135128 65 115 0.9 2.6 0.00 0.00 0.00 99 1020.6
20260906134624 64 75 2.6 5.2 0.00 0.00 0.00 99 1020.5
20260906134119 64 45 1.7 6.1 0.00 0.00 0.00 99 1020.6
20260906133614 64 101 2.6 3.5 0.00 0.00 0.00 99 1020.6
20260906133109 64 118 0.9 2.6 0.00 0.00 0.00 99 1020.8
20260906132604 63 81 1.7 2.6 0.00 0.00 0.00 99 1020.6
20260906132059 63 138 0.0 1.7 0.00 0.00 0.00 99 1020.8
20260906131554 63 124 0.0 1.7 0.00 0.00 0.00 99 1020.8
20260906131050 63 140 0.0 0.9 0.00 0.00 0.00 99 1020.8
20260906130544 62 129 0.0 1.7 0.00 0.00 0.00 99 1020.6
20260906130039 62 86 0.9 1.7 0.00 0.00 0.00 99 1020.6
20260906125537 62 129 0.0 0.0 0.00 0.00 0.00 99 1020.7
20260906125037 61 131 0.0 0.0 0.00 0.00 0.00 99 1020.5
20260906124532 61 53 0.0 0.0 0.00 0.00 0.00 99 1020.5
20260906124027 61 114 0.9 1.7 0.00 0.00 0.00 99 1020.5
20260906123526 61 126 0.0 0.0 0.00 0.00 0.00 99 1020.3
20260906123021 61 127 0.0 0.0 0.00 0.00 0.00 99 1020.0
20260906122515 62 129 0.0 0.0 0.00 0.00 0.00 99 1020.1
20260906122012 62 134 0.0 0.0 0.00 0.00 0.00 99 1020.1
20260906121507 61 129 0.0 0.0 0.00 0.00 0.00 99 1020.0
20260906121004 60 126 0.0 0.9 0.00 0.00 0.00 99 1020.3
20260906120503 59 127 0.0 0.0 0.00 0.00 0.00 99 1020.1
20260906120000 59 114 0.0 0.0 0.00 0.00 0.00 99 1020.0
20260906115455 58 92 0.0 0.9 0.00 0.00 0.00 99 1019.6
20260906114950 58 115 0.0 0.9 0.00 0.00 0.00 99 1019.8
20260906114445 58 144 0.0 0.0 0.00 0.00 0.00 99 1019.8
20260906113941 58 126 0.0 0.9 0.00 0.00 0.00 99 1019.7
20260906113439 58 138 0.0 0.0 0.00 0.00 0.00 99 1019.6
20260906112935 58 139 0.0 0.0 0.00 0.00 0.00 99 1019.6
20260906112430 58 142 0.0 0.0 0.00 0.00 0.00 99 1019.6
20260906111926 57 142 0.0 0.0 0.00 0.00 0.00 99 1019.4
20260906111425 56 141 0.0 0.0 0.00 0.00 0.00 99 1019.6
20260906110920 57 141 0.0 0.0 0.00 0.00 0.00 99 1019.5
20260906110416 58 148 0.0 0.0 0.00 0.00 0.00 99 1019.6
20260906105915 58 135 0.0 0.0 0.00 0.00 0.00 99 1019.3
20260906105411 58 132 0.0 0.0 0.00 0.00 0.00 99 1019.3
20260906104907 57 132 0.0 0.0 0.00 0.00 0.00 99 1019.2
20260906104405 57 140 0.0 0.0 0.00 0.00 0.00 99 1019.4
20260906103904 57 140 0.0 0.0 0.00 0.00 0.00 99 1019.4
20260906103402 57 140 0.0 0.0 0.00 0.00 0.00 99 1019.4
20260906102858 57 140 0.0 0.0 0.00 0.00 0.00 99 1019.6
20260906102357 56 140 0.0 0.0 0.00 0.00 0.00 99 1019.5
20260906101852 57 140 0.0 0.0 0.00 0.00 0.00 99 1019.4
20260906101347 57 140 0.0 0.0 0.00 0.00 0.00 99 1019.5
20260906100843 58 140 0.0 0.0 0.00 0.00 0.00 99 1019.6
20260906100342 58 140 0.0 0.0 0.00 0.00 0.00 99 1019.4
20260906095837 59 140 0.0 0.0 0.00 0.00 0.00 99 1019.3
20260906095333 59 141 0.0 0.0 0.00 0.00 0.00 99 1019.2
20260906094831 58 140 0.0 0.0 0.00 0.00 0.00 99 1019.3
20260906094326 57 127 0.0 0.0 0.00 0.00 0.00 99 1019.4
20260906093823 57 143 0.0 0.0 0.00 0.00 0.00 99 1019.4
20260906093318 57 143 0.0 0.0 0.00 0.00 0.00 99 1019.3
20260906092813 57 143 0.0 0.0 0.00 0.00 0.00 99 1019.4
20260906092308 57 143 0.0 0.0 0.00 0.00 0.00 99 1019.3
20260906091804 57 143 0.0 0.0 0.00 0.00 0.00 99 1019.6
20260906091300 57 143 0.0 0.0 0.00 0.00 0.00 99 1019.4
20260906090756 58 143 0.0 0.0 0.00 0.00 0.00 99 1019.3
20260906090254 59 143 0.0 0.0 0.00 0.00 0.00 99 1019.5
20260906085754 59 143 0.0 0.0 0.00 0.00 0.00 99 1019.4
20260906085247 59 143 0.0 0.0 0.00 0.00 0.00 99 1019.4
20260906084742 59 143 0.0 0.0 0.00 0.00 0.00 99 1019.4
20260906084236 60 143 0.0 0.0 0.00 0.00 0.00 99 1019.3
20260906083732 60 139 0.0 0.0 0.00 0.00 0.00 99 1019.4
20260906083227 60 139 0.0 0.0 0.00 0.00 0.00 99 1019.3
20260906082722 60 130 0.0 0.0 0.00 0.00 0.00 99 1019.2
20260906082217 60 138 0.0 0.0 0.00 0.00 0.00 99 1019.3
20260906081713 60 135 0.0 0.0 0.00 0.00 0.00 99 1019.3
20260906081208 60 145 0.0 0.0 0.00 0.00 0.00 99 1019.3
20260906080704 60 145 0.0 0.0 0.00 0.00 0.00 99 1019.2
20260906080154 60 149 0.0 0.0 0.00 0.00 0.00 99 1019.3
20260906075653 60 149 0.0 0.0 0.00 0.00 0.00 99 1019.2
20260906075143 60 149 0.0 0.0 0.00 0.00 0.00 99 1019.0
20260906074638 59 149 0.0 0.0 0.00 0.00 0.00 99 1019.4
20260906074137 59 153 0.0 0.0 0.00 0.00 0.00 99 1019.4
20260906073632 59 142 0.0 0.0 0.00 0.00 0.00 99 1019.2
20260906073128 59 143 0.0 0.0 0.00 0.00 0.00 99 1019.1
20260906072622 59 138 0.0 0.0 0.00 0.00 0.00 99 1019.2
20260906072119 59 138 0.0 0.0 0.00 0.00 0.00 99 1019.3
20260906071615 59 138 0.0 0.0 0.00 0.00 0.00 99 1019.4
20260906071114 59 138 0.0 0.0 0.00 0.00 0.00 99 1019.5
20260906070611 58 138 0.0 0.0 0.00 0.00 0.00 99 1019.6
20260906070106 59 138 0.0 0.0 0.00 0.00 0.00 99 1019.8
20260906065606 58 138 0.0 0.0 0.00 0.00 0.00 99 1019.8
20260906065101 59 138 0.0 0.0 0.00 0.00 0.00 99 1019.7
20260906064557 58 138 0.0 0.0 0.00 0.00 0.00 99 1019.6
20260906064047 58 138 0.0 0.0 0.00 0.00 0.00 99 1019.8
20260906063542 58 138 0.0 0.0 0.00 0.00 0.00 99 1019.7
20260906063038 58 138 0.0 0.0 0.00 0.00 0.00 99 1019.7
20260906062533 58 138 0.0 0.0 0.00 0.00 0.00 99 1019.5
20260906062027 58 138 0.0 0.0 0.00 0.00 0.00 99 1019.7
20260906061524 58 138 0.0 0.0 0.00 0.00 0.00 99 1019.4
20260906061022 58 138 0.0 0.0 0.00 0.00 0.00 99 1019.4
20260906060519 59 137 0.0 0.0 0.00 0.00 0.00 99 1019.4
20260906060016 59 135 0.0 0.0 0.00 0.00 0.00 99 1019.4
20260906055511 59 145 0.0 0.0 0.00 0.00 0.00 99 1019.4
20260906055006 59 145 0.0 0.0 0.00 0.00 0.00 99 1019.2
20260906054501 59 145 0.0 0.0 0.00 0.00 0.00 99 1019.5
20260906053956 59 145 0.0 0.0 0.00 0.00 0.00 99 1019.2
20260906053452 59 144 0.0 0.0 0.00 0.00 0.00 99 1019.4
20260906052942 59 139 0.0 0.0 0.00 0.00 0.00 99 1019.3
20260906052438 60 139 0.0 0.0 0.00 0.00 0.00 99 1019.2
20260906051935 60 139 0.0 0.0 0.00 0.00 0.00 99 1019.3
20260906051430 60 139 0.0 0.0 0.00 0.00 0.00 99 1019.3
20260906050926 60 139 0.0 0.0 0.00 0.00 0.00 99 1019.3
20260906050425 60 139 0.0 0.0 0.00 0.00 0.00 99 1019.5
20260906045925 60 135 0.0 0.0 0.00 0.00 0.00 99 1019.2
20260906045423 61 131 0.0 0.0 0.00 0.00 0.00 99 1019.3
20260906044919 61 154 0.0 0.0 0.00 0.00 0.00 99 1019.4
20260906044414 61 155 0.0 0.0 0.00 0.00 0.00 99 1019.4
20260906043910 61 155 0.0 0.0 0.00 0.00 0.00 99 1019.2
20260906043406 61 155 0.0 0.0 0.00 0.00 0.00 99 1019.2
20260906042901 62 155 0.0 0.0 0.00 0.00 0.00 99 1019.3
20260906042400 62 155 0.0 0.0 0.00 0.00 0.00 99 1019.2
20260906041855 62 157 0.0 0.0 0.00 0.00 0.00 99 1019.2
20260906041351 63 152 0.0 0.0 0.00 0.00 0.00 99 1018.6
20260906040850 63 131 0.0 0.0 0.00 0.00 0.00 99 1018.8
20260906040346 63 173 0.0 0.0 0.00 0.00 0.00 99 1018.9
20260906035841 63 134 0.0 0.0 0.00 0.00 0.00 99 1018.8
20260906035336 63 139 0.0 0.9 0.00 0.00 0.00 99 1018.7
20260906034832 63 137 0.0 0.9 0.00 0.00 0.00 99 1018.6
20260906034327 63 134 0.0 0.0 0.00 0.00 0.00 99 1018.8
20260906033823 64 131 0.0 1.7 0.00 0.00 0.00 99 1018.6
20260906033322 64 119 0.0 0.9 0.00 0.00 0.00 99 1018.6
20260906032818 63 130 0.0 0.0 0.00 0.00 0.00 99 1018.8
20260906032314 63 130 0.0 0.0 0.00 0.00 0.00 99 1018.8
20260906031809 63 130 0.0 0.0 0.00 0.00 0.00 99 1018.8
20260906031305 63 130 0.0 0.0 0.00 0.00 0.00 99 1018.8
20260906030804 64 129 0.0 0.0 0.00 0.00 0.00 99 1018.7
20260906030300 64 128 0.0 0.0 0.00 0.00 0.00 99 1018.7
20260906025759 64 128 0.0 0.0 0.00 0.00 0.00 99 1018.6
20260906025254 64 128 0.0 0.0 0.00 0.00 0.00 99 1018.5
20260906024752 63 128 0.0 0.0 0.00 0.00 0.00 99 1018.5
20260906024251 63 128 0.0 0.0 0.00 0.00 0.00 99 1018.4
20260906023747 63 128 0.0 0.0 0.00 0.00 0.00 99 1018.5
20260906023242 63 128 0.0 0.0 0.00 0.00 0.00 99 1018.7
20260906022738 63 128 0.0 0.0 0.00 0.00 0.00 99 1018.6
20260906022232 63 128 0.0 0.0 0.00 0.00 0.00 99 1018.3
20260906021729 64 128 0.0 0.0 0.00 0.00 0.00 99 1018.1
20260906021227 64 128 0.0 0.0 0.00 0.00 0.00 99 1018.3
20260906020722 64 128 0.0 0.0 0.00 0.00 0.00 99 1018.3
20260906020218 64 128 0.0 0.0 0.00 0.00 0.00 99 1018.3
20260906015718 64 128 0.0 0.0 0.00 0.00 0.00 99 1018.1
20260906015216 64 128 0.0 0.0 0.00 0.00 0.00 99 1018.3
20260906014710 64 128 0.0 0.0 0.00 0.00 0.00 99 1018.4
20260906014206 64 128 0.0 0.0 0.00 0.00 0.00 99 1018.3
20260906013657 64 128 0.0 0.0 0.00 0.00 0.00 99 1018.0
20260906013151 64 128 0.0 0.0 0.00 0.00 0.00 99 1018.1
20260906012651 64 128 0.0 0.0 0.00 0.00 0.00 99 1018.1
20260906012146 64 128 0.0 0.0 0.00 0.00 0.00 99 1018.1
20260906011642 65 128 0.0 0.0 0.00 0.00 0.00 99 1017.8
20260906011142 65 128 0.0 0.0 0.00 0.00 0.00 99 1017.8
20260906010637 65 128 0.0 0.0 0.00 0.00 0.00 99 1017.8
20260906010134 65 128 0.0 0.0 0.00 0.00 0.00 99 1017.8
20260906005633 66 128 0.0 0.0 0.00 0.00 0.00 99 1018.0
20260906005133 66 128 0.0 0.0 0.00 0.00 0.00 99 1017.9
20260906004632 66 128 0.0 0.0 0.00 0.00 0.00 99 1017.9
20260906004127 66 121 0.0 0.9 0.00 0.00 0.00 98 1017.8
20260906003622 67 120 0.9 0.9 0.00 0.00 0.00 98 1017.7
20260906003118 67 121 0.0 0.0 0.00 0.00 0.00 97 1017.9
20260906002613 68 121 0.0 0.0 0.00 0.00 0.00 96 1017.9
20260906002107 68 120 0.0 0.0 0.00 0.00 0.00 96 1018.0
20260906001602 68 120 0.9 0.9 0.00 0.00 0.00 95 1018.0
20260906001057 69 119 0.0 0.9 0.00 0.00 0.00 94 1018.0
20260906000553 70 127 0.9 0.9 0.00 0.00 0.00 92 1018.1
20260906000048 71 127 0.0 0.0 0.00 0.00 0.00 89 1018.3
20260905235547 71 127 0.0 0.0 0.00 0.00 0.00 89 1018.1
20260905235042 71 126 0.0 0.9 0.00 0.00 0.00 88 1018.3
20260905234538 71 123 0.0 0.9 0.00 0.00 0.00 88 1018.0
20260905234033 71 102 1.7 1.7 0.00 0.00 0.00 86 1018.3
20260905233532 71 136 0.9 0.9 0.00 0.00 0.00 87 1018.1
20260905233027 71 130 0.9 1.7 0.00 0.00 0.00 87 1018.5
20260905232522 71 165 1.7 1.7 0.00 0.00 0.00 88 1018.4
20260905232018 71 97 1.7 1.7 0.00 0.00 0.00 87 1018.1
20260905231513 71 101 2.6 2.6 0.00 0.00 0.00 87 1018.3
20260905231010 71 90 0.9 3.5 0.00 0.00 0.00 87 1018.3
20260905230508 71 117 0.9 1.7 0.00 0.00 0.00 87 1018.4
20260905230007 71 139 0.9 1.7 0.00 0.00 0.00 87 1018.3
20260905225502 71 108 0.9 1.7 0.00 0.00 0.00 87 1018.7
20260905224957 71 122 0.9 0.9 0.00 0.00 0.00 87 1018.5
20260905224452 71 145 0.0 0.9 0.00 0.00 0.00 88 1018.5
20260905223951 71 97 2.6 2.6 0.00 0.00 0.00 88 1018.7
20260905223449 71 150 0.9 3.5 0.00 0.00 0.00 88 1018.5
20260905222944 71 137 0.0 2.6 0.00 0.00 0.00 88 1018.3
20260905222444 71 139 0.9 2.6 0.00 0.00 0.00 89 1018.5
20260905221939 71 159 1.7 5.2 0.00 0.00 0.00 89 1018.4
20260905221436 71 97 4.3 5.2 0.00 0.00 0.00 90 1018.4
20260905220931 71 148 0.0 0.9 0.00 0.00 0.00 91 1018.7
20260905220422 71 118 0.9 1.7 0.00 0.00 0.00 90 1018.5
20260905215920 71 144 0.0 0.9 0.00 0.00 0.00 91 1018.6
20260905215416 71 102 1.7 2.6 0.00 0.00 0.00 90 1018.7
20260905214913 71 116 0.0 2.6 0.00 0.00 0.00 91 1018.5
20260905214408 71 104 2.6 3.5 0.00 0.00 0.00 90 1018.5
20260905213902 71 106 2.6 3.5 0.00 0.00 0.00 90 1018.5
20260905213359 71 72 1.7 2.6 0.00 0.00 0.00 90 1018.6
20260905212854 71 340 1.7 1.7 0.00 0.00 0.00 90 1018.4
20260905212354 71 58 3.5 3.5 0.00 0.00 0.00 89 1018.3
20260905211848 71 119 1.7 5.2 0.00 0.00 0.00 90 1018.5
20260905211343 71 34 2.6 3.5 0.00 0.00 0.00 89 1018.4
20260905210839 71 101 0.0 2.6 0.00 0.00 0.00 90 1018.4
20260905210333 71 114 0.9 2.6 0.00 0.00 0.00 90 1018.4
20260905205832 71 49 0.9 2.6 0.00 0.00 0.00 90 1018.1
20260905205327 71 64 2.6 5.2 0.00 0.00 0.00 89 1018.4
20260905204826 72 60 3.5 7.0 0.00 0.00 0.00 88 1018.6
20260905204322 73 357 2.6 7.8 0.00 0.00 0.00 87 1018.5
20260905203821 73 179 2.6 7.0 0.00 0.00 0.00 87 1018.6
20260905203317 73 70 1.7 2.6 0.00 0.00 0.00 87 1018.7
20260905202812 73 130 2.6 6.1 0.00 0.00 0.00 88 1018.6
20260905202307 73 135 0.0 2.6 0.00 0.00 0.00 88 1018.6
20260905201757 73 108 1.7 2.6 0.00 0.00 0.00 89 1018.5
20260905201252 73 15 2.6 5.2 0.00 0.00 0.00 88 1018.5
20260905200747 74 113 1.7 5.2 0.00 0.00 0.00 87 1018.3
20260905200243 73 129 4.3 7.8 0.00 0.00 0.00 87 1018.3
20260905195741 73 68 2.6 3.5 0.00 0.00 0.00 87 1018.3
20260905195236 73 26 0.9 2.6 0.00 0.00 0.00 88 1018.5
20260905194732 74 79 1.7 2.6 0.00 0.00 0.00 88 1018.4
20260905194231 73 61 0.9 2.6 0.00 0.00 0.00 88 1018.3
20260905193725 73 4 0.9 3.5 0.00 0.00 0.00 89 1018.3
20260905193220 72 160 0.9 7.0 0.00 0.00 0.00 90 1018.3
20260905192716 73 84 3.5 6.1 0.00 0.00 0.00 88 1018.3
20260905192213 73 87 5.2 7.8 0.00 0.00 0.00 88 1018.4
20260905191712 73 141 1.7 6.1 0.00 0.00 0.00 90 1018.4
20260905191210 73 134 1.7 5.2 0.00 0.00 0.00 90 1018.5
20260905190709 73 84 2.6 8.7 0.00 0.00 0.00 89 1018.5
20260905190208 73 141 0.0 1.7 0.00 0.00 0.00 90 1018.4
20260905185706 73 304 1.7 2.6 0.00 0.00 0.00 89 1018.6
20260905185207 73 35 0.9 2.6 0.00 0.00 0.00 90 1018.4
20260905184701 73 56 0.9 2.6 0.00 0.00 0.00 90 1017.9
20260905184200 73 99 1.7 2.6 0.00 0.00 0.00 90 1018.3
20260905183700 72 98 0.9 3.5 0.00 0.00 0.00 90 1018.3
20260905183155 73 84 2.6 3.5 0.00 0.00 0.00 89 1018.1
20260905182654 73 109 0.9 2.6 0.00 0.00 0.00 90 1018.3
20260905182148 73 28 1.7 3.5 0.00 0.00 0.00 89 1018.0
20260905181643 73 143 0.9 2.6 0.00 0.00 0.00 88 1018.1
20260905181142 73 144 0.0 1.7 0.00 0.00 0.00 89 1018.3
20260905180637 73 123 0.0 1.7 0.00 0.00 0.00 89 1018.3
20260905180132 73 119 0.9 2.6 0.00 0.00 0.00 89 1018.3
20260905175631 73 79 0.9 2.6 0.00 0.00 0.00 89 1018.4
20260905175127 73 47 0.9 2.6 0.00 0.00 0.00 89 1018.5
20260905174623 73 191 0.9 1.7 0.00 0.00 0.00 90 1018.5
20260905174118 73 62 0.9 2.6 0.00 0.00 0.00 90 1018.6
20260905173614 73 17 1.7 1.7 0.00 0.00 0.00 89 1018.6
20260905173109 73 103 0.9 0.9 0.00 0.00 0.00 88 1018.7
20260905172608 74 94 0.9 1.7 0.00 0.00 0.00 89 1018.7
20260905172058 73 173 0.0 0.9 0.00 0.00 0.00 89 1018.4
20260905171554 73 274 1.7 3.5 0.00 0.00 0.00 89 1018.6
20260905171050 73 114 1.7 2.6 0.00 0.00 0.00 90 1018.5
20260905170547 73 27 0.9 1.7 0.00 0.00 0.00 89 1018.6
20260905170041 73 121 0.9 1.7 0.00 0.00 0.00 89 1018.4
20260905165536 73 135 0.0 1.7 0.00 0.00 0.00 91 1018.5
20260905165032 73 54 2.6 2.6 0.00 0.00 0.00 89 1018.6
20260905164526 73 58 0.9 2.6 0.00 0.00 0.00 91 1018.6
20260905164020 73 5 1.7 3.5 0.00 0.00 0.00 91 1018.5